| time (UTC) | temp C | wind direction | speed KPH | gust KPH | rain 1hr cm | rain 24hr cm | rain mn cm | humidity % | barometer mb |
| 20260504011540 | 18 | 0 | 0.0 | 6.4 | 0.00 | 0.00 | 0.00 | 58 | 1018.3 |
| 20260504010040 | 18 | 0 | 0.0 | 3.2 | 0.00 | 0.00 | 0.00 | 57 | 1018.2 |
| 20260504004540 | 18 | 0 | 0.0 | 1.6 | 0.00 | 0.00 | 0.00 | 57 | 1018.0 |
| 20260504003038 | 19 | 0 | 0.0 | 0.0 | 0.00 | 0.00 | 0.00 | 53 | 1017.9 |
| 20260504001545 | 21 | 0 | 0.0 | 0.0 | 0.00 | 0.00 | 0.00 | 47 | 1017.7 |
| 20260504000037 | 22 | 0 | 0.0 | 6.4 | 0.00 | 0.00 | 0.00 | 45 | 1017.8 |
| 20260503234558 | 23 | 18 | 0.0 | 8.0 | 0.00 | 0.00 | 0.00 | 36 | 1017.7 |
| 20260503233046 | 24 | 349 | 3.2 | 6.4 | 0.00 | 0.00 | 0.00 | 33 | 1017.7 |
| 20260503231538 | 24 | 58 | 4.8 | 11.3 | 0.00 | 0.00 | 0.00 | 34 | 1017.8 |
| 20260503230037 | 25 | 342 | 0.0 | 6.4 | 0.00 | 0.00 | 0.00 | 34 | 1017.8 |
| 20260503224536 | 25 | 332 | 4.8 | 12.9 | 0.00 | 0.00 | 0.00 | 32 | 1017.9 |
| 20260503223036 | 25 | 13 | 3.2 | 11.3 | 0.00 | 0.00 | 0.00 | 30 | 1017.7 |
| 20260503221548 | 25 | 300 | 1.6 | 12.9 | 0.00 | 0.00 | 0.00 | 31 | 1017.7 |
| 20260503220040 | 25 | 322 | 4.8 | 12.9 | 0.00 | 0.00 | 0.00 | 30 | 1017.8 |
| 20260503214538 | 25 | 309 | 1.6 | 11.3 | 0.00 | 0.00 | 0.00 | 30 | 1017.8 |
| 20260503213038 | 25 | 359 | 4.8 | 9.7 | 0.00 | 0.00 | 0.00 | 31 | 1017.9 |
| 20260503211535 | 25 | 348 | 3.2 | 17.7 | 0.00 | 0.00 | 0.00 | 29 | 1018.0 |
| 20260503210041 | 25 | 318 | 6.4 | 14.5 | 0.00 | 0.00 | 0.00 | 32 | 1018.3 |
| 20260503204542 | 25 | 347 | 8.0 | 14.5 | 0.00 | 0.00 | 0.00 | 29 | 1018.5 |
| 20260503203052 | 25 | 41 | 6.4 | 12.9 | 0.00 | 0.00 | 0.00 | 29 | 1018.7 |
| 20260503201539 | 25 | 349 | 3.2 | 17.7 | 0.00 | 0.00 | 0.00 | 31 | 1018.8 |
| 20260503200036 | 25 | 228 | 6.4 | 12.9 | 0.00 | 0.00 | 0.00 | 32 | 1018.8 |
| 20260503194541 | 25 | 8 | 3.2 | 9.7 | 0.00 | 0.00 | 0.00 | 31 | 1019.3 |
| 20260503193039 | 25 | 27 | 3.2 | 12.9 | 0.00 | 0.00 | 0.00 | 32 | 1019.5 |
| 20260503191537 | 25 | 319 | 6.4 | 14.5 | 0.00 | 0.00 | 0.00 | 30 | 1019.8 |
| 20260503190037 | 24 | 63 | 3.2 | 20.9 | 0.00 | 0.00 | 0.00 | 31 | 1020.1 |
| 20260503184537 | 24 | 40 | 1.6 | 12.9 | 0.00 | 0.00 | 0.00 | 30 | 1020.3 |
| 20260503183040 | 24 | 348 | 1.6 | 9.7 | 0.00 | 0.00 | 0.00 | 31 | 1020.6 |
| 20260503181539 | 23 | 62 | 8.0 | 16.1 | 0.00 | 0.00 | 0.00 | 34 | 1020.7 |
| 20260503180041 | 24 | 58 | 3.2 | 12.9 | 0.00 | 0.00 | 0.00 | 32 | 1020.8 |
| 20260503174536 | 24 | 338 | 6.4 | 14.5 | 0.00 | 0.00 | 0.00 | 32 | 1020.8 |
| 20260503173039 | 23 | 323 | 6.4 | 19.3 | 0.00 | 0.00 | 0.00 | 32 | 1020.9 |
| 20260503171545 | 23 | 99 | 3.2 | 14.5 | 0.00 | 0.00 | 0.00 | 32 | 1021.0 |
| 20260503081537 | 8 | 0 | 0.0 | 0.0 | 0.00 | 1.14 | 0.00 | 91 | 1019.4 |
| 20260503071553 | 8 | 0 | 0.0 | 1.6 | 0.00 | 1.60 | 0.00 | 90 | 1019.0 |
| 20260503054552 | 9 | 0 | 0.0 | 0.0 | 0.00 | 2.13 | 0.00 | 90 | 1018.8 |
| 20260503053037 | 9 | 0 | 0.0 | 0.0 | 0.00 | 2.13 | 0.00 | 90 | 1018.8 |
| 20260503051536 | 9 | 0 | 0.0 | 0.0 | 0.00 | 2.13 | 0.00 | 90 | 1018.6 |
| 20260503050041 | 10 | 0 | 0.0 | 0.0 | 0.00 | 2.13 | 0.00 | 89 | 1018.6 |
| 20260503044537 | 10 | 0 | 0.0 | 0.0 | 0.00 | 2.16 | 2.13 | 88 | 1018.6 |
| 20260503043036 | 10 | 0 | 0.0 | 0.0 | 0.00 | 2.16 | 2.13 | 89 | 1018.6 |
| 20260503041540 | 10 | 0 | 0.0 | 0.0 | 0.00 | 2.16 | 2.13 | 90 | 1018.6 |
| 20260503040042 | 10 | 6 | 0.0 | 0.0 | 0.00 | 2.16 | 2.13 | 90 | 1018.4 |
| 20260503034538 | 10 | 0 | 0.0 | 0.0 | 0.00 | 2.46 | 2.13 | 88 | 1018.5 |
| 20260503033039 | 10 | 0 | 0.0 | 0.0 | 0.00 | 2.46 | 2.13 | 87 | 1018.3 |
| 20260503031541 | 11 | 0 | 0.0 | 0.0 | 0.00 | 2.46 | 2.13 | 85 | 1018.2 |
| 20260503030045 | 11 | 0 | 0.0 | 0.0 | 0.00 | 2.46 | 2.13 | 82 | 1018.0 |
| 20260503024539 | 12 | 0 | 0.0 | 0.0 | 0.00 | 3.15 | 2.13 | 80 | 1017.9 |
| 20260503023039 | 12 | 0 | 0.0 | 0.0 | 0.00 | 3.15 | 2.13 | 79 | 1017.7 |
| 20260503021537 | 12 | 0 | 0.0 | 0.0 | 0.00 | 3.15 | 2.13 | 76 | 1017.6 |
| 20260503020038 | 13 | 0 | 0.0 | 0.0 | 0.00 | 3.15 | 2.13 | 73 | 1017.4 |
| 20260503014537 | 14 | 0 | 0.0 | 0.0 | 0.00 | 3.43 | 2.13 | 67 | 1017.2 |
| 20260503013038 | 15 | 0 | 0.0 | 1.6 | 0.00 | 3.43 | 2.13 | 64 | 1017.0 |